GFSNE_sfc_rhum_000.txt.gz
RH
64 62 64 72 78 74 76 68 80 78 57 42 39 34 32 32 39 35 37 60 65 74 80 77 71 66 65 65 72 76 77 66 58 68 71 71 67 75
57 53 44 40 43 46 45 46 43 43 42 30 26 27 28 22 34 33 34 58 71 78 76 74 73 70 67 67 70 74 82 82 70 64 69 74 74 70
45 43 42 39 38 34 34 34 35 34 36 32 26 27 32 34 33 34 33 34 34 74 77 68 70 72 74 73 74 80 83 88 84 77 73 72 76 77
40 41 39 26 37 37 35 39 38 37 37 41 34 31 33 33 35 38 30 24 29 45 78 74 73 71 72 74 76 85 91 92 93 90 86 83 82 82
41 40 38 40 43 39 40 40 37 31 36 37 37 33 32 32 34 35 36 38 28 46 71 80 79 79 77 77 78 84 91 91 96 95 93 92 91 91
42 44 43 44 44 43 39 40 36 37 36 35 34 34 33 33 33 36 38 36 36 26 38 48 58 66 73 76 78 82 89 91 92 94 95 93 92 93
46 42 45 48 59 60 48 45 42 40 38 37 38 37 38 38 40 37 40 41 41 38 40 39 38 37 39 62 55 76 78 92 93 92 93 94 94 94
42 41 40 52 51 64 64 65 65 57 50 48 48 51 47 45 43 47 51 53 55 47 49 52 50 46 39 37 53 69 78 90 91 90 92 93 93 92
45 44 39 32 50 43 56 68 69 70 74 66 68 62 60 56 54 60 61 59 54 44 51 65 60 76 68 42 68 76 82 87 92 91 88 89 90 89
48 46 44 43 45 56 56 58 59 57 58 57 60 54 52 50 52 51 54 60 62 52 54 78 75 79 73 72 69 75 83 89 91 91 89 88 88 90
49 46 51 62 66 69 72 84 69 61 58 68 69 70 71 74 70 64 84 75 87 59 50 58 74 76 72 79 79 73 82 85 85 91 91 91 92 91
71 65 70 66 74 75 90 89 82 60 57 63 62 79 80 64 77 72 71 78 74 72 54 60 55 58 79 76 71 79 81 82 84 87 92 92 91 76
70 68 64 89 92 85 79 83 80 75 70 67 65 64 61 64 67 68 69 80 80 69 52 46 68 57 63 68 78 73 77 86 84 85 90 90 86 86
83 76 92 82 82 77 72 76 76 81 81 84 83 75 72 67 60 61 63 64 68 63 55 57 74 56 61 73 70 60 74 78 88 95 90 90 89 90
89 92 83 83 80 74 79 78 84 86 87 87 84 79 76 68 71 79 74 65 64 71 70 66 71 61 62 77 72 76 77 83 92 96 100 87 84 81
84 91 87 89 90 89 78 76 80 81 80 83 80 75 76 83 90 82 85 86 87 77 93 87 83 80 78 72 67 73 74 88 94 92 100 100 88 83
91 88 85 85 83 73 72 73 73 73 81 81 82 80 78 74 81 78 80 83 91 84 84 81 96 98 84 90 91 83 75 75 74 83 94 80 86 84
85 88 91 92 87 74 74 77 77 78 75 78 85 82 81 79 80 89 79 81 86 82 74 79 88 96 97 96 96 72 62 78 70 88 82 83 75 73
86 88 91 92 86 69 73 76 79 78 81 80 84 83 82 78 85 89 94 91 84 73 66 69 75 83 85 87 87 90 84 70 95 92 97 87 83 68
82 86 88 86 73 66 70 77 80 82 81 80 83 83 84 83 82 82 86 94 90 77 74 71 75 81 88 94 97 96 81 95 95 92 93 86 94 84
80 78 78 75 73 69 79 81 89 86 84 89 84 84 89 84 79 77 83 91 91 80 75 76 78 90 82 90 98 92 88 82 93 98 94 88 83 77
71 67 70 73 79 78 81 81 76 84 83 82 87 88 87 88 82 79 79 85 82 86 72 68 65 62 75 75 87 92 85 87 88 87 90 93 91 89
74 70 74 78 78 79 74 79 74 80 80 82 84 86 89 88 80 77 78 76 71 77 73 73 62 59 66 68 77 80 86 84 79 84 86 86 85 82

GFSNE_sfc_rhum_003.txt.gz
RH
70 67 66 69 75 63 61 71 87 91 62 57 60 53 55 46 44 41 39 68 69 69 76 68 65 58 58 56 59 64 65 69 65 60 65 69 70 68
57 54 52 48 44 47 49 59 62 70 69 43 38 39 36 25 39 39 39 66 71 72 69 64 63 65 67 67 67 69 67 72 75 67 61 62 66 68
57 52 49 45 43 38 41 41 39 38 43 37 30 32 37 38 33 37 39 40 41 71 68 68 72 71 69 69 69 70 77 79 80 80 73 65 63 63
50 49 49 37 45 40 36 38 37 35 36 42 36 35 39 38 40 43 30 24 32 46 74 72 72 68 69 73 75 74 78 85 88 87 88 84 77 73
43 44 42 41 42 41 40 40 36 30 37 37 37 34 35 34 35 37 38 41 27 50 79 79 80 76 74 73 76 78 81 86 88 89 90 92 90 86
37 39 39 41 42 44 42 42 38 40 37 38 37 36 35 34 35 38 41 38 37 24 36 45 60 71 71 73 78 77 78 80 84 88 90 92 94 92
44 36 40 45 59 58 44 47 48 47 43 41 42 41 38 38 38 38 42 43 44 41 43 43 43 43 47 72 60 77 78 82 85 85 93 92 94 95
42 40 38 48 52 69 70 72 63 51 50 50 48 49 47 45 43 45 48 51 54 49 50 56 49 49 45 46 63 61 62 69 73 74 82 90 88 92
46 44 40 33 49 40 50 64 68 73 75 61 64 59 56 51 52 56 60 60 60 50 54 66 68 73 61 42 68 74 72 82 80 87 90 89 86 87
47 46 48 46 46 52 56 56 53 54 56 56 60 55 56 52 53 54 59 61 62 57 58 78 75 79 72 67 68 72 77 76 82 87 89 90 88 86
51 51 56 56 58 64 68 74 66 61 56 68 69 70 72 72 70 68 84 89 86 59 53 66 74 79 74 78 77 70 75 79 85 90 89 90 88 86
68 58 66 64 75 76 80 86 87 68 62 71 69 72 93 82 77 69 68 77 77 77 54 65 60 60 80 77 73 76 79 81 82 82 83 88 92 86
73 73 70 95 87 89 83 81 78 76 74 66 64 62 58 57 59 73 67 76 79 74 61 61 90 66 69 72 72 79 87 88 89 88 84 84 92 88
83 78 92 79 76 77 75 74 83 77 81 84 85 79 77 69 58 58 64 80 76 76 66 70 87 71 69 77 73 70 76 85 86 93 93 88 92 90
90 83 92 87 84 82 94 79 80 88 90 87 85 82 81 78 75 80 82 82 80 75 67 71 74 92 94 74 73 73 84 82 90 95 94 94 97 92
86 87 90 91 89 93 88 84 86 84 81 87 85 80 78 86 94 91 94 84 91 84 81 80 80 79 86 72 73 80 75 83 98 96 96 99 100 99
93 89 87 86 87 83 76 76 78 74 82 86 86 82 81 81 83 86 73 80 91 82 82 80 85 88 80 84 86 79 77 84 85 82 97 90 91 97
87 89 92 92 90 86 85 80 78 77 76 78 82 83 86 84 84 94 77 77 77 81 81 73 91 89 83 91 90 80 76 79 72 86 99 97 78 78
86 88 92 92 78 62 71 74 75 79 80 79 82 88 83 85 93 88 85 88 84 74 67 72 83 93 90 85 83 93 90 77 93 93 89 100 86 74
81 86 82 76 68 62 66 76 78 81 81 82 86 85 86 88 90 85 87 82 78 78 81 77 82 90 93 95 96 94 89 91 88 91 89 97 96 84
67 62 69 68 72 71 80 81 87 86 87 88 85 89 87 86 84 81 86 84 77 70 77 76 75 86 82 88 96 95 93 81 86 91 93 94 84 76
68 63 65 69 76 76 80 83 83 81 84 84 87 91 90 84 90 84 84 86 81 81 76 69 63 64 76 78 88 87 85 86 83 83 86 90 92 93
74 69 72 74 73 74 71 79 78 82 77 78 81 86 89 87 82 82 81 80 74 76 73 71 71 61 68 68 78 83 79 80 79 93 86 81 83 82

GFSNE_sfc_rhum_006.txt.gz
RH
88 88 86 85 87 83 86 85 91 95 81 64 86 84 90 88 85 73 63 70 72 78 77 67 72 68 67 62 61 63 64 67 66 65 67 67 68 69
79 80 85 74 71 72 76 83 82 83 88 69 54 48 46 41 66 70 54 75 76 76 76 64 64 64 67 68 67 67 68 66 70 71 67 61 58 58
70 67 67 63 66 64 60 55 57 66 68 54 50 46 48 54 44 44 48 62 71 75 72 70 72 72 71 70 69 65 64 69 73 76 78 66 58 56
62 61 59 45 56 54 53 53 55 55 58 56 54 50 50 50 49 54 41 30 46 66 73 72 71 72 74 74 72 73 74 73 77 81 84 86 78 70
52 54 52 55 60 60 59 58 55 45 54 56 57 56 53 54 49 50 48 54 41 52 78 78 76 75 78 76 73 74 73 76 82 84 86 86 88 86
56 54 53 52 56 60 59 67 56 63 58 58 57 54 56 52 55 51 56 56 57 33 44 55 76 77 77 74 74 74 76 77 78 82 84 88 91 90
57 50 51 56 60 64 48 59 64 67 67 64 63 60 57 59 63 61 66 67 67 66 68 66 64 69 73 78 67 74 76 77 78 78 83 88 90 91
63 57 54 57 56 66 68 67 69 69 64 64 63 66 63 62 64 71 80 82 83 74 76 81 74 75 71 65 70 71 75 79 83 79 80 85 90 89
61 60 55 44 61 56 69 74 71 79 84 76 75 75 71 65 65 71 79 85 88 79 79 94 94 90 84 57 79 71 71 74 75 79 86 83 90 91
65 62 62 62 67 67 70 79 74 69 69 68 78 79 72 66 70 75 80 79 85 83 78 89 95 92 95 91 75 73 73 74 74 75 79 86 90 92
67 68 69 68 65 65 74 83 84 76 61 67 71 76 75 75 76 79 86 88 95 91 82 90 92 95 94 93 93 77 75 74 80 81 84 88 90 91
80 72 67 73 90 89 96 97 95 86 78 82 80 72 67 80 89 92 91 89 83 85 72 78 82 92 95 93 90 89 96 82 79 79 82 85 88 97
83 80 80 95 93 79 74 90 89 80 86 82 79 75 73 72 70 69 84 95 90 82 72 75 97 98 97 97 94 95 95 94 95 93 84 83 83 86
93 92 91 82 79 78 81 85 87 86 90 90 90 91 92 87 78 72 73 85 91 84 74 83 99 95 95 93 91 94 94 96 97 96 97 92 89 86
93 91 91 88 84 89 89 82 91 93 96 98 93 94 95 90 85 90 91 92 93 90 84 85 90 95 96 93 96 95 93 96 97 99 98 99 99 97
88 92 94 90 93 95 92 86 91 97 96 97 96 93 94 96 96 94 98 97 98 94 92 88 87 88 92 93 93 95 96 95 98 100 99 96 95 97
94 93 92 91 92 91 86 89 91 89 93 93 95 95 92 90 92 92 94 95 98 98 96 95 89 90 93 92 95 94 93 96 98 98 99 97 95 93
92 94 95 95 93 94 95 94 91 95 90 93 94 92 93 93 92 91 95 98 97 96 96 96 99 99 98 96 89 92 96 96 96 95 98 98 97 98
94 94 95 89 86 79 81 86 93 94 88 93 95 95 94 93 97 94 94 94 92 96 97 99 99 98 98 96 97 94 97 97 98 98 98 99 97 99
89 90 85 86 84 82 83 87 92 91 89 91 95 95 96 97 96 96 95 97 95 97 98 92 94 96 98 99 98 99 95 98 99 99 99 99 99 98
77 76 84 84 86 85 89 89 90 93 92 91 92 96 96 96 95 93 94 95 95 95 96 92 93 87 97 98 99 98 98 79 89 99 98 99 99 99
86 81 81 84 89 87 89 90 89 88 88 88 90 91 95 96 96 95 94 95 93 95 95 92 86 85 93 95 96 98 99 98 85 83 84 87 99 97
93 87 88 89 87 87 86 89 88 90 88 90 90 90 93 93 94 95 93 93 92 91 92 93 92 92 86 88 92 98 90 94 98 98 97 82 82 84

GFSNE_sfc_rhum_009.txt.gz
RH
93 94 89 88 90 89 90 91 98 91 81 83 85 75 82 91 89 90 94 92 92 86 81 72 76 66 62 60 62 62 65 66 69 69 67 66 68 68
80 86 87 90 85 92 95 97 94 89 96 78 70 65 57 44 77 83 86 86 92 87 85 73 67 65 63 64 65 63 59 58 62 67 74 69 59 54
83 74 66 60 68 89 87 77 72 77 94 67 64 58 55 54 50 63 71 76 78 84 76 74 73 73 73 72 70 64 59 60 60 59 59 69 74 62
68 69 68 50 61 63 65 62 65 62 60 70 67 63 58 56 56 52 41 30 58 73 79 74 77 80 79 78 77 75 72 66 67 68 70 70 70 78
69 69 63 61 63 63 69 74 75 59 69 70 73 66 63 58 53 57 48 52 39 54 78 80 75 76 77 77 77 74 74 76 77 79 79 81 79 78
70 69 64 62 64 68 63 66 67 76 74 74 74 71 70 61 67 71 72 70 63 42 48 64 80 81 84 82 80 78 76 76 76 78 82 86 87 84
73 64 60 60 59 65 63 68 75 79 77 75 78 74 74 74 73 79 83 81 76 78 76 72 70 72 75 81 82 80 81 80 81 81 81 83 86 88
73 64 65 63 64 64 68 81 79 80 76 81 77 80 77 77 76 81 85 89 91 81 86 85 80 78 76 72 74 80 74 73 71 75 83 85 85 90
76 71 64 51 67 68 71 76 77 74 86 90 95 91 84 81 78 82 88 90 92 85 88 96 97 89 85 66 74 69 69 69 73 76 73 80 90 87
77 69 72 75 76 71 70 75 83 81 76 72 92 88 88 83 82 74 87 94 93 90 86 93 97 96 96 91 79 76 76 74 71 71 73 77 81 92
75 73 71 71 71 79 88 94 93 84 69 68 72 84 88 93 87 91 97 93 92 86 92 97 96 96 96 94 92 79 78 80 81 79 77 76 81 86
83 74 73 78 94 93 92 97 96 84 83 88 86 78 72 73 72 84 89 95 95 97 82 86 83 95 96 97 95 93 95 84 81 81 81 80 80 90
84 83 83 78 83 83 78 93 93 83 88 91 89 84 78 75 77 76 79 91 92 94 80 80 97 99 98 98 97 94 97 94 94 90 83 84 84 86
92 88 93 91 78 80 91 92 83 89 98 96 95 93 94 93 89 95 90 85 86 83 74 78 96 92 92 95 97 95 96 96 98 98 97 89 90 89
91 92 89 82 89 92 92 92 96 96 97 97 97 96 96 94 92 96 93 97 95 93 87 87 98 98 97 98 97 97 97 96 98 99 98 98 98 100
88 94 92 92 91 96 88 89 93 94 95 96 96 95 96 98 98 97 98 95 98 94 95 93 95 98 97 96 95 94 96 94 98 99 95 97 99 97
92 96 91 88 89 90 86 87 90 93 95 96 97 96 94 92 96 97 97 97 99 99 98 97 96 91 91 90 98 95 94 97 96 99 97 99 97 96
89 95 95 93 92 87 91 92 92 94 93 94 97 97 96 96 96 96 98 98 99 98 99 97 100 100 99 97 92 95 98 96 97 96 100 96 91 96
91 94 96 96 93 87 89 92 94 96 92 93 95 96 97 96 97 98 98 99 98 97 97 97 98 96 96 96 99 94 98 97 99 98 99 99 95 88
86 90 93 96 93 90 90 92 93 94 93 93 94 94 95 97 99 98 97 100 98 98 97 96 96 98 99 98 100 98 86 99 99 99 99 98 99 95
95 87 92 94 93 92 95 94 95 94 94 94 93 93 94 96 95 98 98 98 98 96 97 97 96 92 97 98 98 99 98 80 91 98 99 100 99 98
98 97 92 92 96 93 96 95 93 93 93 94 94 94 94 94 95 97 97 98 98 98 97 94 92 96 95 96 98 98 100 98 90 81 82 87 97 98
98 98 98 98 97 96 94 95 96 96 94 95 95 94 95 96 92 94 97 96 97 96 96 94 97 94 97 95 96 98 96 98 100 99 97 80 83 84

GFSNE_sfc_rhum_015.txt.gz
RH
94 95 94 92 87 91 90 96 98 95 86 92 92 74 82 80 75 79 92 79 82 86 86 86 90 91 86 68 69 76 76 78 80 77 73 68 64 63
90 77 74 79 83 86 86 87 92 96 89 92 83 76 66 47 54 72 71 64 82 86 87 87 92 91 91 87 84 70 70 70 69 71 75 73 66 58
75 75 76 74 80 82 83 79 79 86 90 75 80 74 62 59 60 63 63 67 89 84 87 88 90 95 96 94 90 87 75 68 65 62 60 60 69 72
75 77 76 57 76 79 80 73 75 73 83 79 80 77 67 60 62 64 55 49 69 64 82 79 88 90 94 95 92 88 85 67 63 66 66 60 56 58
76 77 77 77 78 73 71 75 76 68 76 78 77 80 79 73 68 68 68 74 51 53 65 84 86 85 84 92 93 85 80 74 72 73 70 70 70 66
76 78 78 76 74 72 70 72 76 90 86 92 90 82 76 74 78 80 80 79 73 46 58 71 81 80 84 90 88 85 81 76 77 78 79 77 76 72
78 74 72 70 66 62 62 73 81 83 87 93 90 88 86 79 78 80 82 82 80 77 84 77 77 76 80 79 77 85 86 80 77 76 79 82 82 80
87 77 76 71 69 66 69 70 71 83 90 94 85 90 89 79 80 84 84 89 88 86 89 87 78 76 74 71 75 82 82 82 79 77 75 77 84 89
84 82 73 59 71 74 75 75 74 77 83 93 92 87 85 88 83 87 91 92 93 84 93 98 98 89 79 61 72 73 78 78 78 77 76 76 77 81
74 77 77 77 81 74 88 86 80 77 74 77 96 86 82 84 85 80 84 88 90 92 94 96 98 96 97 90 73 73 77 79 76 78 77 78 78 80
75 73 70 75 77 84 90 92 90 81 67 67 67 71 95 92 94 95 96 91 89 75 96 98 97 97 98 96 90 74 78 79 79 78 80 79 81 80
83 74 76 74 80 81 96 96 96 80 78 83 87 86 80 79 74 83 96 95 90 98 92 95 90 92 95 97 98 96 97 82 81 81 82 81 82 93
87 84 84 80 83 84 84 96 95 92 93 90 92 93 89 85 84 84 88 90 91 88 84 90 96 99 97 97 97 97 97 96 97 93 81 84 83 87
94 89 93 72 83 82 87 91 89 95 96 96 95 95 96 96 92 95 95 94 88 83 81 86 97 95 99 99 99 96 97 97 98 97 98 90 85 88
91 80 73 72 75 81 80 86 92 94 95 96 95 94 96 96 94 98 98 98 97 94 89 86 97 94 97 99 98 98 96 96 98 98 100 100 99 98
91 94 92 86 87 87 86 86 91 95 95 95 95 95 95 96 96 97 97 97 98 98 98 97 93 94 94 87 87 96 98 97 100 99 98 99 99 98
94 97 96 91 91 88 88 88 88 88 92 94 93 93 93 94 96 97 97 97 98 99 98 98 98 97 97 98 97 89 99 98 98 98 100 99 99 98
94 99 100 99 97 92 94 93 92 91 91 92 94 93 94 94 95 95 96 97 97 97 96 94 96 98 98 99 98 94 97 96 93 94 97 98 99 97
98 99 100 100 99 92 93 93 95 94 92 93 94 94 94 93 95 95 96 97 97 98 98 97 96 98 96 96 97 91 98 96 96 98 98 96 98 84
98 100 100 100 100 95 93 95 95 93 94 95 95 95 95 96 95 95 95 98 97 97 92 97 98 98 98 97 99 98 84 98 98 98 98 98 98 88
97 98 99 100 100 99 100 99 99 97 98 98 96 95 96 95 94 95 96 96 97 91 94 97 96 94 98 98 97 98 98 87 94 98 99 99 99 94
98 97 96 99 100 99 100 100 98 98 95 95 97 98 98 97 96 96 96 100 98 99 97 96 92 96 97 96 98 100 99 99 95 86 83 83 95 98
98 97 98 99 100 100 98 100 100 100 97 97 97 97 99 100 96 97 98 97 96 95 95 92 91 96 98 97 98 99 97 98 99 99 97 82 80 82

GFSNE_sfc_rhum_018.txt.gz
RH
92 95 95 91 82 86 85 88 93 89 71 61 83 81 80 79 74 73 75 67 79 82 82 84 85 87 86 90 79 82 83 79 77 79 84 81 76 71
91 83 76 80 84 85 85 86 87 87 86 64 60 77 72 61 61 68 66 60 69 84 84 84 84 86 89 91 89 80 84 86 86 85 80 74 67 63
75 75 76 76 79 81 79 75 75 80 81 65 62 63 72 68 61 62 61 70 79 75 85 83 85 86 87 90 96 90 80 78 82 84 80 75 65 62
74 76 75 60 74 75 75 73 72 71 77 82 73 71 71 68 68 65 49 45 60 54 68 80 80 86 88 90 93 95 89 82 68 74 73 78 78 75
76 78 76 78 77 75 72 72 72 65 74 87 86 76 76 72 68 66 65 70 52 50 56 71 83 85 86 88 92 95 93 88 81 78 76 76 75 73
77 78 80 79 78 75 72 73 67 75 76 76 75 89 82 73 72 68 68 71 63 47 48 66 76 82 83 89 92 92 93 89 82 79 80 80 80 75
83 80 77 74 71 66 62 69 77 91 87 82 78 76 76 80 84 82 72 70 69 68 68 74 71 73 82 88 87 87 88 87 85 79 79 79 78 79
85 76 72 68 68 68 70 70 72 93 93 87 81 81 77 74 85 87 75 77 72 70 76 75 74 69 70 76 74 86 89 86 84 81 78 81 84 84
76 73 69 57 71 73 78 76 76 76 84 91 90 84 84 75 74 85 92 83 79 71 77 85 87 84 74 57 70 72 86 87 86 83 83 83 84 86
76 76 73 75 75 71 87 85 74 72 74 75 76 79 80 88 78 73 75 77 82 78 84 87 88 89 84 80 73 71 77 83 83 82 79 81 82 83
73 73 70 75 76 79 89 91 81 76 66 68 72 72 70 72 86 93 96 94 88 68 80 87 89 90 87 86 84 71 77 78 81 78 78 78 78 79
85 73 75 71 75 78 94 94 93 78 79 82 83 79 79 79 77 79 86 93 92 90 80 92 84 81 85 85 85 84 86 80 78 78 79 80 80 82
88 83 82 79 69 72 76 94 94 88 89 87 86 88 86 84 80 79 79 84 86 82 71 82 85 86 82 84 87 88 84 86 87 85 81 82 82 84
90 88 92 69 68 71 77 80 80 90 92 93 91 89 91 89 85 91 89 86 82 74 67 78 85 80 86 91 86 85 87 88 87 86 88 86 84 87
90 79 73 72 76 81 77 78 88 92 93 93 92 89 91 90 87 91 91 94 94 93 90 95 93 83 85 86 86 88 86 86 90 91 97 97 95 96
91 92 92 87 90 89 84 85 89 90 94 93 92 91 91 93 94 95 95 94 95 94 98 98 96 93 92 89 82 84 88 91 95 95 96 97 95 91
94 96 96 93 89 88 86 85 87 85 89 92 92 91 90 90 92 94 94 95 95 94 94 95 97 96 93 89 93 87 85 89 90 92 97 95 91 92
92 100 100 100 100 94 93 91 87 86 87 90 92 90 91 92 92 90 90 93 94 93 93 92 94 95 96 98 98 91 87 89 84 90 92 93 91 86
97 99 100 100 100 95 96 91 93 88 89 90 93 93 93 90 93 92 92 90 89 90 91 92 94 94 92 92 94 90 91 90 89 93 92 93 87 82
96 98 100 100 100 96 96 97 92 92 90 91 95 95 95 94 94 93 92 96 90 84 83 84 90 92 93 95 94 95 90 92 86 91 94 93 94 92
95 95 98 97 99 96 100 100 100 97 95 97 96 95 97 94 93 93 95 97 95 83 83 84 85 91 91 93 96 95 95 88 90 92 94 92 90 84
97 96 95 96 98 98 100 100 100 99 97 92 96 97 97 96 96 95 95 97 89 89 85 82 84 86 93 88 89 97 94 94 92 85 82 78 85 87
98 97 97 98 97 98 96 100 100 100 98 96 94 94 97 98 94 94 95 92 86 85 84 85 81 82 90 90 92 95 95 94 93 89 90 88 82 82

GFSNE_sfc_rhum_021.txt.gz
RH
59 61 59 56 57 55 59 62 72 81 59 43 43 38 37 40 45 48 50 60 68 70 82 78 75 70 79 83 88 80 80 86 82 79 82 80 78 80
54 60 54 52 56 57 57 60 60 66 66 41 37 37 37 32 41 46 44 59 62 75 81 82 79 75 79 83 87 88 79 81 90 86 80 78 84 79
56 56 55 53 52 49 49 47 47 46 53 45 38 38 43 45 43 43 41 45 47 68 71 75 83 81 82 85 88 93 88 86 76 94 84 81 82 75
53 54 55 47 54 51 50 50 49 47 50 50 42 42 48 47 47 51 42 38 37 50 58 62 72 83 84 88 89 90 93 91 83 82 94 85 77 73
56 57 57 58 56 50 50 50 49 48 52 53 54 46 43 43 59 50 48 48 38 49 58 60 68 79 84 85 87 88 90 92 85 80 91 95 91 86
61 61 59 56 53 51 54 57 53 64 62 62 58 52 51 47 52 58 56 44 43 34 43 53 63 75 82 84 87 88 91 91 86 84 83 84 89 86
54 48 48 55 65 61 56 58 61 65 63 65 57 50 48 48 52 50 61 60 64 46 44 40 43 50 65 83 83 87 92 94 86 86 79 82 80 80
47 46 45 54 53 65 66 68 67 79 84 66 61 68 63 56 53 53 74 70 61 47 48 46 45 46 50 61 73 82 90 96 89 90 84 81 81 82
48 48 48 45 57 53 58 65 72 68 74 77 79 61 56 50 56 68 68 72 68 66 53 56 57 58 51 44 65 72 89 96 93 91 90 88 84 83
49 51 51 53 54 62 79 67 58 50 54 60 69 65 59 57 57 70 75 67 61 54 53 73 60 70 62 56 65 71 81 93 96 94 94 91 85 86
54 52 54 55 67 77 70 75 59 52 55 61 69 71 74 76 74 69 80 75 75 48 44 66 69 71 67 68 66 66 78 94 91 91 87 86 83 83
61 51 61 65 74 66 70 75 78 64 57 60 58 61 67 68 80 66 60 83 72 82 50 69 56 56 67 67 65 67 68 78 87 80 80 79 77 60
62 56 58 72 65 65 68 76 84 71 74 67 60 55 56 59 65 72 58 61 63 56 45 50 52 54 57 60 66 70 68 74 73 74 80 79 81 74
74 63 70 68 67 70 68 72 75 77 80 80 77 69 70 71 64 67 76 76 62 55 45 54 64 53 57 66 60 65 71 73 71 75 76 76 83 85
74 67 69 70 69 64 68 73 75 75 80 81 79 76 78 80 83 88 83 75 81 78 70 74 78 72 68 74 60 66 71 74 81 82 84 78 72 78
71 64 76 72 70 74 65 65 67 72 80 83 81 78 78 83 87 88 90 90 90 83 94 98 96 92 86 66 64 76 75 87 79 80 88 92 81 78
76 71 69 68 61 61 63 63 60 61 72 80 82 80 76 75 78 82 87 90 92 89 90 92 99 98 88 78 80 72 78 78 79 90 94 80 76 78
66 72 78 82 75 64 70 67 64 61 67 76 81 79 80 81 79 75 77 84 86 84 88 88 92 93 93 97 98 91 76 75 76 80 81 85 74 71
71 73 83 82 78 62 62 64 65 65 69 75 81 82 84 80 81 78 77 76 76 74 74 84 88 91 84 86 84 92 92 80 91 89 86 86 80 76
70 73 79 79 73 62 61 64 66 69 67 68 82 86 87 84 84 80 77 81 74 65 63 62 73 80 85 92 96 94 90 97 94 93 82 87 84 92
73 69 76 74 73 69 77 81 84 81 80 78 78 84 89 81 80 79 80 82 77 61 62 64 70 84 80 89 97 93 95 88 89 93 87 85 82 79
82 76 72 73 78 78 83 86 82 80 77 71 77 84 87 84 81 83 83 83 72 70 62 62 66 72 81 74 74 92 86 92 85 82 80 83 80 79
87 82 82 83 83 84 78 80 78 84 80 74 73 75 86 84 77 78 79 76 71 69 68 70 70 69 75 75 80 82 89 90 79 77 88 87 86 81

GFSNE_sfc_rhum_024.txt.gz
RH
45 46 41 38 36 35 37 41 61 76 52 38 34 30 28 29 34 35 37 48 59 66 69 65 68 73 70 68 70 73 78 79 78 80 88 81 77 78
38 45 44 38 36 36 35 38 41 53 57 34 30 32 31 25 33 36 36 50 54 59 69 70 79 79 76 72 74 77 82 83 79 78 84 88 80 80
45 47 46 43 40 37 38 37 37 37 43 37 32 33 37 37 36 40 40 38 36 54 71 67 69 71 78 77 78 82 83 87 83 76 76 92 84 79
45 46 46 35 43 41 37 39 37 38 44 47 40 40 42 41 41 44 33 32 34 39 63 61 59 67 85 84 86 87 88 88 89 85 76 91 94 80
48 49 47 46 44 39 40 39 39 41 47 51 50 44 43 42 42 44 45 46 33 48 60 61 61 60 70 85 86 86 86 89 92 89 85 97 98 92
48 47 44 41 42 45 42 43 43 49 49 52 52 49 48 39 38 47 48 44 48 40 44 50 55 54 65 85 87 84 84 85 91 89 82 98 98 97
42 37 38 46 57 56 48 50 53 58 60 55 60 54 49 48 54 47 49 42 44 46 58 47 38 35 48 81 74 82 86 88 92 86 82 83 98 98
38 37 37 44 46 57 61 62 59 65 71 69 67 60 57 47 45 47 54 58 60 47 86 55 50 39 35 39 66 69 75 86 92 86 80 83 83 90
40 39 37 33 46 45 54 62 67 70 85 70 68 68 68 56 56 55 56 57 65 51 67 64 52 54 44 30 62 65 72 83 94 92 86 85 85 83
43 43 43 41 44 57 63 59 48 44 39 44 54 54 53 53 56 60 62 55 54 44 46 67 55 62 56 50 61 62 71 81 98 95 91 89 91 84
45 44 44 43 59 68 60 59 49 42 50 54 58 62 65 72 69 66 70 62 75 56 41 53 58 59 57 64 61 69 72 89 99 97 96 93 90 84
51 45 48 56 67 64 68 68 74 59 50 52 51 50 50 51 72 69 62 64 62 68 53 54 51 54 66 56 55 59 63 93 99 98 97 94 85 63
56 51 47 60 64 65 66 70 75 63 64 61 56 53 49 52 51 55 76 60 63 53 42 45 46 53 57 62 61 57 60 79 94 97 98 95 88 81
69 58 64 61 66 65 64 69 69 73 69 75 72 68 67 70 67 67 65 60 61 55 45 58 57 51 58 62 60 59 60 63 67 84 83 78 78 81
70 68 68 65 60 54 56 64 65 64 71 77 74 71 72 72 73 85 85 84 66 66 57 59 61 59 63 65 60 60 66 65 66 72 83 74 69 66
63 62 62 73 63 58 54 52 57 60 68 79 76 70 66 73 76 77 89 93 87 80 74 74 77 78 81 64 60 69 68 82 70 67 74 75 65 61
78 72 63 59 55 49 52 53 54 51 56 70 75 75 69 67 71 77 77 81 91 80 82 91 100 99 84 80 74 64 67 67 78 88 77 69 65 66
68 71 77 78 71 58 60 58 56 55 52 61 71 70 76 76 73 72 74 79 84 81 84 82 94 86 86 92 96 82 59 64 64 71 72 75 64 64
74 70 79 80 76 56 54 54 59 59 62 55 63 68 70 69 79 76 76 75 76 71 70 79 83 92 79 82 77 93 97 71 76 79 75 82 77 69
72 70 75 74 67 56 52 54 57 66 66 62 66 71 74 70 69 68 75 82 73 64 62 60 71 75 88 95 94 96 93 98 88 92 89 90 92 97
63 60 69 67 65 61 71 75 75 75 77 75 71 69 76 70 67 64 66 68 66 57 60 61 63 77 73 78 100 95 95 85 88 97 85 82 83 80
73 65 63 64 71 72 78 81 79 76 74 68 71 73 76 73 70 68 69 69 59 62 54 58 61 68 76 75 78 92 84 89 82 81 83 85 90 86
81 73 75 76 76 78 72 77 74 80 72 70 70 67 74 75 66 66 66 62 57 59 56 63 68 66 69 65 73 78 92 90 81 79 87 86 85 81

GFSNE_sfc_rhum_027.txt.gz
RH
64 61 50 45 49 46 42 40 54 73 55 40 38 34 32 34 38 40 41 46 54 58 59 56 55 57 57 62 66 64 63 66 68 70 74 75 78 85
54 50 45 50 51 47 39 41 36 47 53 35 31 34 35 28 36 42 41 52 54 60 62 62 63 59 61 70 72 67 68 70 70 74 75 76 74 83
46 45 53 50 48 45 44 36 37 37 42 37 32 36 41 43 40 41 41 43 41 52 58 62 65 72 71 65 72 74 74 76 75 78 82 80 73 81
50 50 48 40 47 39 36 37 38 37 39 42 40 44 45 44 45 46 36 31 38 48 60 59 67 70 70 69 78 85 84 82 81 84 85 83 74 83
51 51 47 43 42 38 40 41 38 33 41 51 53 49 44 41 44 44 43 41 34 48 57 64 72 69 67 68 74 81 86 86 85 83 89 90 82 93
48 44 39 39 41 46 43 45 41 45 48 52 50 53 47 49 51 52 56 50 44 28 39 53 69 71 68 69 72 76 86 85 82 82 92 87 90 96
42 34 36 43 48 52 46 48 51 54 54 56 58 58 61 52 52 51 57 49 44 46 50 57 64 64 52 62 58 75 82 79 83 85 92 80 89 97
38 37 36 46 48 56 56 58 60 62 71 73 63 55 49 54 66 71 63 60 54 49 72 82 72 85 49 48 68 71 67 70 79 87 92 85 87 94
41 40 38 30 46 42 54 56 59 65 71 65 70 68 76 56 55 64 63 68 65 53 62 76 69 75 51 36 60 65 69 73 78 93 96 86 87 91
45 44 42 42 47 58 58 52 45 41 40 37 50 51 51 49 52 56 58 52 55 50 48 72 64 70 64 53 62 66 69 72 85 98 94 87 87 90
46 43 44 43 59 64 59 60 51 45 44 54 52 58 64 68 66 68 82 72 81 56 55 83 70 68 67 66 65 62 72 73 89 98 97 92 86 89
51 45 56 52 62 62 68 67 70 53 45 47 53 54 54 53 70 66 75 91 78 70 63 83 58 54 67 67 66 69 76 80 92 98 97 96 90 93
58 52 49 61 60 63 64 68 72 62 61 60 61 59 56 54 53 60 62 82 86 72 52 55 59 56 62 72 73 72 67 91 89 99 98 97 91 94
69 59 65 68 63 64 60 58 64 68 69 68 72 66 65 71 66 64 83 92 77 64 54 53 69 60 57 65 60 67 66 71 90 98 100 98 98 88
69 67 68 65 59 58 49 57 68 60 63 70 76 72 69 65 65 72 73 72 94 73 51 60 66 59 60 68 64 64 64 65 81 90 98 98 93 83
76 68 67 71 68 72 62 54 55 59 58 61 70 66 70 70 72 72 82 80 90 93 76 70 69 71 75 69 66 69 69 78 70 78 82 87 80 75
77 72 67 60 59 55 54 53 54 53 55 58 63 65 68 68 69 71 76 79 83 80 80 94 97 90 86 78 86 62 64 66 76 76 74 71 73 78
70 72 75 77 75 63 61 58 58 58 56 59 61 59 61 64 68 72 71 76 81 75 77 75 97 86 85 87 88 91 59 66 71 80 74 78 78 74
78 71 76 80 76 61 55 55 58 58 65 60 63 67 67 64 69 64 71 74 76 71 68 73 87 83 93 84 89 93 88 96 77 79 78 79 76 91
71 69 70 72 69 59 55 56 59 66 66 64 69 73 76 72 69 63 62 71 69 64 63 60 69 74 91 96 95 95 86 100 88 87 86 87 90 93
74 70 74 64 65 64 71 74 78 78 76 80 74 72 78 77 71 64 66 67 65 54 59 59 62 76 72 79 95 88 88 80 87 92 86 85 82 80
82 73 66 63 69 71 80 82 79 81 78 75 75 78 77 75 78 69 70 68 58 58 53 52 60 65 82 83 89 86 84 85 79 83 84 84 90 94
87 80 84 84 80 80 75 77 76 78 73 75 75 75 75 78 74 70 66 62 57 57 53 58 60 71 79 64 72 89 86 83 79 77 88 84 83 84

GFSNE_sfc_rhum_030.txt.gz
RH
80 83 85 78 70 73 73 69 76 88 65 52 55 46 54 50 52 50 51 54 60 61 61 58 54 53 52 52 54 56 58 63 59 62 64 66 64 72
77 83 78 76 72 73 70 69 64 63 64 50 47 48 52 38 45 50 50 51 56 59 60 60 61 60 59 59 53 57 61 62 60 64 66 67 66 71
82 75 74 66 73 71 68 64 59 59 59 51 45 50 52 59 52 53 52 49 48 56 60 61 64 66 65 66 68 66 62 60 64 69 70 71 72 73
69 66 65 48 65 62 61 62 61 54 56 58 56 57 60 57 56 57 45 39 46 48 56 60 63 66 69 76 75 72 68 70 76 77 77 76 77 81
70 68 65 60 60 64 66 61 61 49 61 63 62 60 60 58 58 58 57 57 47 52 52 57 59 66 75 76 71 73 69 73 81 87 80 77 81 88
64 63 56 55 61 62 55 64 55 65 64 67 67 65 61 60 66 65 68 62 62 43 47 55 66 68 74 79 81 74 70 73 84 86 83 87 92 88
61 49 50 52 48 55 53 65 71 76 71 68 68 72 69 64 62 80 92 75 66 64 63 74 76 74 81 81 80 73 71 73 82 80 82 88 92 89
61 57 54 56 59 63 63 56 64 80 81 84 81 80 73 74 82 72 74 76 76 70 78 76 80 82 82 97 87 79 93 97 73 75 82 89 90 90
62 62 54 37 68 66 62 62 62 59 69 74 76 83 83 70 67 70 72 77 82 67 72 73 80 83 70 49 74 73 81 75 75 82 90 94 89 91
64 63 63 62 77 69 76 70 64 59 55 47 65 64 61 63 68 68 74 72 75 71 68 82 91 86 83 83 71 69 70 74 77 87 95 96 90 92
63 63 60 60 68 62 72 76 71 63 51 55 56 57 62 69 69 75 93 90 91 80 75 90 92 95 90 91 88 70 71 73 79 88 95 97 91 92
76 66 64 64 59 61 84 86 86 75 66 63 65 66 64 67 73 74 96 96 94 93 79 94 86 84 96 100 91 98 91 76 85 91 93 97 92 90
86 84 84 65 68 65 62 84 84 70 72 75 72 72 72 69 70 73 78 86 96 97 77 78 89 86 90 87 96 94 93 98 97 98 98 98 96 93
88 88 89 69 67 65 67 65 60 76 86 91 80 80 79 81 74 75 78 80 78 95 96 82 92 87 91 92 90 89 92 98 99 100 100 98 98 96
92 85 74 70 69 72 66 62 75 88 92 91 84 87 78 77 75 78 77 78 76 91 90 82 93 86 94 94 94 94 90 92 98 98 100 100 100 100
87 90 90 84 84 83 85 81 89 91 90 92 91 79 83 78 82 80 83 83 86 81 83 100 97 88 96 95 96 96 90 97 98 95 98 100 100 99
92 93 93 88 90 89 90 85 88 88 89 92 92 89 80 76 76 78 79 84 88 86 84 82 91 99 98 97 98 96 94 93 100 95 90 92 92 94
91 95 95 93 94 93 92 92 90 86 90 89 92 91 91 87 80 76 77 85 87 82 83 82 95 86 99 97 93 98 99 96 98 92 93 96 97 98
97 95 91 91 93 93 91 91 89 90 86 92 92 93 95 86 89 84 80 80 82 79 78 83 94 87 92 95 97 90 100 98 98 96 96 96 99 99
95 91 89 90 90 91 91 90 91 92 92 94 93 94 95 95 91 91 84 85 83 74 75 69 80 83 92 97 98 99 85 99 99 96 98 99 99 94
90 91 86 86 85 90 93 93 92 94 93 94 96 95 94 95 94 90 93 86 81 69 70 69 70 80 81 93 98 99 98 82 88 98 98 98 98 99
87 86 87 90 91 91 95 95 95 95 95 96 95 94 95 94 95 93 94 94 82 81 73 66 64 74 95 96 94 98 98 98 88 86 87 89 98 98
88 88 88 86 87 92 94 94 94 94 94 93 93 93 94 94 94 94 94 91 90 80 76 74 72 72 93 88 88 97 96 97 97 99 98 88 88 91

GFSNE_sfc_rhum_033.txt.gz
RH
90 89 91 90 88 83 82 79 85 99 87 68 67 57 60 60 57 59 62 56 62 62 59 53 50 49 50 51 52 53 55 53 54 54 68 60 63 63
87 89 90 92 88 88 84 79 76 80 89 66 62 59 59 47 50 58 60 53 58 63 62 63 61 55 50 53 56 55 55 54 54 57 60 59 63 64
84 85 79 71 78 72 72 72 72 72 74 68 63 66 64 67 58 62 61 57 57 60 62 62 64 64 64 64 65 61 61 56 56 58 57 58 62 65
78 72 67 54 67 69 74 68 69 70 74 72 71 67 70 69 64 64 53 45 54 54 63 63 64 62 64 66 70 74 72 69 67 61 60 60 66 68
73 72 71 66 67 71 66 68 70 55 75 78 71 70 70 69 65 66 67 72 55 57 57 60 60 64 69 72 72 76 77 73 74 74 74 80 80 73
67 68 67 64 62 60 58 64 62 74 77 82 73 70 69 68 75 75 81 79 75 53 56 62 64 65 62 67 74 74 77 79 78 74 83 90 89 87
66 60 58 56 56 59 56 68 76 82 85 82 76 75 76 76 78 89 83 69 65 68 71 72 73 70 74 72 80 84 88 84 81 75 75 86 88 91
70 66 61 58 66 65 62 61 66 82 92 98 82 82 77 88 86 83 75 78 79 74 88 81 77 75 74 84 78 78 98 84 97 88 75 78 84 90
74 69 60 56 69 67 64 63 63 59 74 82 81 81 78 72 75 78 81 86 87 73 79 88 82 85 77 57 69 76 78 83 84 82 81 85 91 95
74 70 70 73 74 70 75 73 73 72 66 58 74 71 70 69 76 74 80 81 82 78 74 96 86 86 91 86 78 74 80 78 75 80 82 88 94 94
73 72 71 71 66 60 73 77 78 74 58 60 61 66 68 68 69 86 93 92 93 83 88 96 95 95 96 96 91 75 86 90 81 78 84 88 91 95
83 75 66 71 62 62 87 88 91 75 74 72 72 73 72 76 76 81 89 96 94 92 82 97 92 94 96 97 96 96 98 93 84 82 87 86 90 95
90 90 86 67 69 67 66 88 88 76 78 78 79 77 76 78 76 78 81 89 95 91 74 98 98 92 92 94 94 88 98 96 99 95 89 91 94 93
88 91 93 75 68 68 74 73 70 78 96 94 93 83 89 82 78 81 82 86 82 84 95 98 96 94 94 94 92 92 86 96 99 99 99 99 98 97
92 86 80 75 73 81 76 73 81 90 94 97 90 95 91 79 77 82 79 79 83 82 68 97 98 95 94 95 96 96 96 94 99 99 100 100 100 100
86 88 95 96 95 90 87 81 89 94 94 94 95 92 94 92 92 83 84 84 91 83 74 86 92 97 98 97 98 98 98 98 98 100 100 100 100 100
98 96 98 97 96 91 94 92 93 94 94 95 95 96 94 94 90 87 83 82 94 88 82 77 82 85 98 97 95 98 100 98 98 100 99 99 100 100
97 98 98 98 96 94 93 92 96 92 96 94 95 97 97 97 96 88 87 86 88 84 82 81 90 81 84 96 94 93 99 100 99 95 96 99 99 99
98 97 98 96 94 92 93 93 93 95 92 95 97 96 97 97 96 95 94 89 86 83 81 79 83 88 90 93 97 87 99 98 97 97 98 98 99 99
97 97 95 94 93 93 94 93 96 96 96 97 96 97 98 98 98 97 96 97 91 81 75 68 74 77 94 97 97 98 85 99 98 98 100 98 99 97
95 95 95 93 92 90 94 93 93 96 96 98 97 98 98 97 97 97 97 96 96 76 79 76 70 74 86 98 98 98 97 86 89 98 99 98 99 100
94 93 93 94 92 92 94 96 95 97 98 99 98 98 100 98 97 97 99 100 96 96 81 71 68 75 93 94 97 98 99 97 89 88 90 91 97 98
93 92 91 93 92 91 95 95 92 95 96 97 97 97 100 95 96 97 99 97 97 95 91 79 75 74 81 81 93 97 98 99 96 95 96 90 93 98

GFSNE_sfc_rhum_036.txt.gz
RH
90 90 94 96 96 95 92 96 100 99 96 84 70 62 67 66 63 65 63 56 54 55 55 54 53 53 53 53 53 53 53 57 57 56 55 53 53 61
90 88 90 93 88 90 90 89 85 82 89 74 69 69 65 51 53 57 64 55 59 60 61 58 59 56 56 56 55 54 54 55 55 55 56 54 54 57
85 87 84 81 86 83 75 69 66 68 74 73 71 73 72 73 64 68 66 64 67 59 60 58 64 63 64 58 56 55 56 57 60 61 59 55 58 61
77 74 72 57 67 70 72 66 67 69 73 76 76 73 74 71 72 76 60 52 68 60 58 59 55 58 66 67 69 68 67 67 68 68 65 61 58 57
76 76 75 76 65 74 68 67 70 56 74 79 76 77 78 74 71 72 74 72 64 57 52 53 53 57 62 61 62 64 68 70 75 80 77 73 68 64
66 65 65 64 64 62 60 63 64 74 78 82 78 77 76 70 81 83 81 76 67 49 54 58 61 65 61 61 62 61 67 75 77 80 84 80 81 83
65 61 61 60 59 60 60 70 77 82 84 84 81 79 75 75 83 86 91 70 68 68 69 74 81 72 76 72 67 66 70 79 88 84 81 81 83 87
64 68 64 59 66 67 64 66 71 82 87 98 90 85 80 81 88 79 78 83 84 78 89 83 79 81 81 84 74 72 72 71 96 89 84 80 82 84
69 73 65 58 71 68 63 61 62 60 76 89 90 87 82 71 73 82 85 90 90 79 85 90 87 89 79 64 70 71 75 78 79 81 83 84 83 85
75 73 74 73 74 70 73 71 69 68 67 62 79 79 75 76 78 81 94 94 91 82 89 95 88 90 86 86 76 78 78 81 85 87 82 83 84 89
72 73 76 75 72 67 72 76 75 71 53 60 62 66 66 67 71 85 91 94 90 82 87 91 88 91 89 86 88 78 76 82 85 88 86 82 84 89
81 80 70 70 72 68 86 87 90 70 69 76 75 71 73 74 75 85 91 96 94 91 84 92 85 92 98 96 99 91 93 89 87 87 82 83 85 92
87 89 85 72 69 71 73 90 88 73 80 83 79 80 77 76 72 75 84 94 95 92 77 91 96 94 96 96 97 94 96 86 97 98 88 86 85 89
87 87 91 77 74 76 77 77 75 84 96 96 94 89 86 83 75 79 81 84 85 87 85 88 96 97 96 93 97 96 88 90 99 98 98 94 95 97
86 84 79 76 77 82 80 79 85 95 95 97 91 94 90 83 78 83 77 79 80 85 70 84 89 91 91 95 96 98 98 92 96 98 99 98 97 99
88 85 90 94 97 94 95 87 93 96 95 93 96 95 93 95 94 91 92 88 90 86 75 85 85 91 94 93 97 99 98 99 97 97 99 100 100 100
97 97 98 98 97 95 95 94 95 96 96 97 96 96 97 98 97 94 95 91 95 89 83 77 77 79 86 98 98 88 96 99 97 99 99 99 100 100
97 97 96 96 96 95 94 95 95 94 95 92 96 97 97 98 98 94 93 96 95 86 88 81 82 83 86 94 92 92 88 99 97 97 96 99 99 99
97 97 96 97 96 92 94 96 96 93 93 91 95 95 97 98 98 98 97 97 92 87 84 81 84 90 94 97 96 90 97 98 96 98 99 98 99 98
97 95 95 95 94 93 94 96 95 97 94 94 97 97 98 98 99 98 97 100 98 88 79 73 77 83 96 98 98 98 86 98 98 99 98 96 98 99
95 95 94 94 95 94 94 96 96 96 93 97 97 98 98 98 99 97 98 99 100 86 84 78 72 78 94 97 98 98 97 90 95 98 97 99 100 99
94 96 96 93 94 95 95 95 97 96 94 95 96 98 99 100 98 97 98 100 97 98 92 75 70 72 87 93 96 99 99 97 87 88 94 98 99 99
94 96 96 93 93 95 94 96 97 97 94 92 94 97 100 100 96 98 99 99 99 96 95 88 78 75 76 89 96 97 98 98 99 98 97 92 95 97

GFSNE_sfc_rhum_039.txt.gz
RH
88 88 90 94 95 94 95 98 100 98 94 81 70 66 68 66 64 64 70 60 57 56 58 57 56 56 55 55 55 55 56 55 54 53 55 56 58 60
88 88 89 92 92 93 93 95 98 98 98 80 70 69 67 54 58 67 71 62 63 62 59 59 60 59 60 60 57 57 55 54 55 56 55 56 55 57
88 89 86 87 93 92 88 76 73 71 73 65 72 72 73 72 68 75 74 73 75 62 62 60 60 61 59 58 60 60 58 58 55 54 56 57 59 59
81 84 82 67 84 78 77 70 68 67 70 71 76 75 75 71 74 78 64 57 70 64 59 56 56 55 56 56 60 64 63 62 62 65 66 67 65 63
82 81 76 78 81 75 72 70 70 58 74 80 78 79 80 77 72 75 78 75 66 57 55 56 58 61 64 63 65 64 60 61 65 69 73 76 75 71
79 75 68 70 72 71 67 67 65 72 78 84 81 76 80 74 82 85 78 74 65 52 60 63 62 64 66 67 68 68 66 65 63 66 76 80 85 82
72 67 67 64 60 62 62 68 74 83 85 86 80 77 80 78 88 77 81 71 71 72 73 72 75 74 76 75 74 73 70 70 69 70 79 85 86 87
72 68 68 65 69 72 66 67 74 84 86 97 86 86 82 88 85 81 84 88 84 80 90 86 79 82 81 85 79 77 74 72 71 71 73 76 82 86
70 68 69 57 70 76 76 69 65 63 79 85 91 88 92 78 78 87 88 90 92 83 92 87 81 86 74 66 73 74 73 77 79 79 82 84 82 85
72 74 76 72 76 71 73 74 69 68 65 59 76 82 80 80 84 81 91 91 85 83 86 94 82 88 81 80 77 76 74 80 78 80 83 88 89 85
70 73 76 78 74 73 77 78 75 72 55 58 62 64 67 65 66 89 92 93 91 80 80 93 91 86 84 87 87 76 75 74 75 78 82 85 89 87
81 77 80 78 74 76 88 88 93 78 65 67 74 73 70 75 72 83 92 97 93 91 86 95 82 90 96 97 98 92 88 78 78 76 80 86 85 96
85 85 83 78 74 75 75 92 91 76 77 81 82 82 77 76 71 74 81 92 95 83 74 89 97 89 96 96 97 94 91 89 90 89 84 90 88 85
85 84 86 79 76 75 77 83 80 88 95 96 98 94 90 88 73 79 81 82 82 86 83 87 95 93 94 92 87 96 94 92 96 96 96 94 92 92
85 84 82 80 78 82 82 85 89 96 97 100 96 93 95 83 76 86 79 81 82 82 70 84 92 92 87 87 93 93 98 96 95 98 96 98 98 99
92 89 88 94 93 92 97 91 96 96 96 96 96 97 95 97 97 95 98 92 94 91 75 84 85 88 93 88 90 94 91 96 96 93 97 99 100 99
96 98 97 97 97 97 98 96 96 97 98 98 98 96 96 97 98 97 98 97 99 93 85 78 74 77 82 91 97 95 94 88 97 95 94 98 99 99
98 96 96 97 96 95 96 95 96 96 95 96 96 94 95 96 97 98 98 99 99 93 90 85 84 84 86 87 93 96 90 99 97 95 97 98 97 98
98 95 96 96 95 96 95 95 95 94 93 96 95 93 95 96 98 98 98 98 98 95 90 86 86 90 94 96 88 91 95 88 97 95 98 98 98 97
97 95 95 94 94 96 94 95 94 96 98 96 96 95 96 96 98 98 98 100 100 96 89 78 80 82 95 97 98 96 92 97 98 98 98 98 97 97
84 91 94 93 93 96 94 94 94 96 97 98 94 93 96 96 99 98 98 98 100 95 92 84 76 77 83 96 98 97 97 91 96 96 97 99 99 97
86 95 94 94 94 96 96 95 96 98 98 97 94 95 96 97 99 98 99 100 99 100 94 84 75 74 87 93 95 97 98 97 91 91 93 97 99 99
90 94 95 96 96 96 95 96 95 95 95 95 95 94 97 98 98 97 98 98 99 97 96 94 84 84 83 79 95 96 97 98 99 97 96 95 96 97